Time,TemperatureF,DewpointF,PressureIn,WindDirection,WindDirectionDegrees,WindSpeedMPH,WindSpeedGustMPH,Humidity,HourlyPrecipIn,Conditions,Clouds,dailyrainin,SoftwareType,DateUTC
2013-04-05 00:00:00,37.6,1.1,28.94,NW,311,0.0,0.0,21,0.00,CLR,,0.00,WeatherDisplay:10.37,2013-04-05 04:00:00,
2013-04-05 00:05:00,37.4,0.9,28.94,NW,311,0.0,0.0,21,0.00,CLR,,0.00,WeatherDisplay:10.37,2013-04-05 04:05:00,
2013-04-05 00:10:00,37.0,1.6,28.94,NW,311,0.0,0.0,22,0.00,CLR,,0.00,WeatherDisplay:10.37,2013-04-05 04:10:00,
2013-04-05 00:15:00,36.9,1.5,28.94,NW,311,0.0,0.0,22,0.00,CLR,,0.00,WeatherDisplay:10.37,2013-04-05 04:15:00,
2013-04-05 00:20:00,36.5,1.2,28.94,NW,311,0.0,0.0,22,0.00,CLR,,0.00,WeatherDisplay:10.37,2013-04-05 04:20:00,
2013-04-05 00:25:00,36.2,1.0,28.94,NW,311,0.0,0.0,22,0.00,CLR,,0.00,WeatherDisplay:10.37,2013-04-05 04:25:00,
2013-04-05 00:30:00,36.0,0.7,28.94,NW,311,0.0,0.0,22,0.00,CLR,,0.00,WeatherDisplay:10.37,2013-04-05 04:30:00,
2013-04-05 00:35:00,35.8,0.6,28.94,NW,311,0.0,0.0,22,0.00,CLR,,0.00,WeatherDisplay:10.37,2013-04-05 04:35:00,
2013-04-05 00:40:00,35.6,0.4,28.94,NW,311,0.0,0.0,22,0.00,CLR,,0.00,WeatherDisplay:10.37,2013-04-05 04:40:00,
2013-04-05 00:45:00,35.6,0.4,28.94,NW,311,0.0,0.0,22,0.00,CLR,,0.00,WeatherDisplay:10.37,2013-04-05 04:45:00,
2013-04-05 00:50:00,35.6,0.4,28.94,NW,311,0.0,0.0,22,0.00,CLR,,0.00,WeatherDisplay:10.37,2013-04-05 04:50:00,
2013-04-05 00:55:00,35.2,0.1,28.94,NW,311,0.0,0.0,22,0.00,CLR,,0.00,WeatherDisplay:10.37,2013-04-05 04:55:00,
2013-04-05 01:05:00,34.7,-0.3,28.94,NW,311,0.0,0.0,22,0.00,CLR,,0.00,WeatherDisplay:10.37,2013-04-05 05:05:00,
2013-04-05 01:10:00,34.5,-0.5,28.94,NW,311,0.0,0.0,22,0.00,CLR,,0.00,WeatherDisplay:10.37,2013-04-05 05:10:00,
2013-04-05 01:15:00,34.6,-0.4,28.94,NW,311,0.0,0.0,22,0.00,CLR,,0.00,WeatherDisplay:10.37,2013-04-05 05:15:00,
2013-04-05 01:20:00,34.7,-0.3,28.94,NW,311,0.0,0.0,22,0.00,CLR,,0.00,WeatherDisplay:10.37,2013-04-05 05:20:00,
2013-04-05 01:25:00,34.5,-0.5,28.94,NW,311,0.0,0.0,22,0.00,CLR,,0.00,WeatherDisplay:10.37,2013-04-05 05:25:00,
2013-04-05 01:30:00,34.3,-0.6,28.94,NW,311,0.0,0.0,22,0.00,CLR,,0.00,WeatherDisplay:10.37,2013-04-05 05:30:00,
2013-04-05 01:35:00,34.3,-0.6,28.94,NW,311,0.0,0.0,22,0.00,CLR,,0.00,WeatherDisplay:10.37,2013-04-05 05:35:00,
2013-04-05 01:40:00,34.7,-0.4,28.94,NW,311,0.0,0.0,22,0.00,CLR,,0.00,WeatherDisplay:10.37,2013-04-05 05:40:00,
2013-04-05 01:45:00,34.9,-0.2,28.94,NW,311,0.0,0.0,22,0.00,CLR,,0.00,WeatherDisplay:10.37,2013-04-05 05:45:00,
2013-04-05 01:50:00,35.1,0.0,28.94,NW,311,0.0,0.0,22,0.00,CLR,,0.00,WeatherDisplay:10.37,2013-04-05 05:50:00,
2013-04-05 01:55:00,35.2,0.1,28.94,NW,311,0.0,0.0,22,0.00,CLR,,0.00,WeatherDisplay:10.37,2013-04-05 05:55:00,
2013-04-05 02:00:00,35.4,0.3,28.94,NW,311,0.0,0.0,22,0.00,CLR,,0.00,WeatherDisplay:10.37,2013-04-05 06:00:00,
2013-04-05 02:05:00,35.6,0.4,28.94,NW,311,0.0,0.0,22,0.00,CLR,,0.00,WeatherDisplay:10.37,2013-04-05 06:05:00,
2013-04-05 02:10:00,35.6,0.4,28.94,NW,306,0.0,3.0,22,0.00,CLR,,0.00,WeatherDisplay:10.37,2013-04-05 06:10:00,
2013-04-05 02:20:00,35.6,0.4,28.94,WNW,298,0.0,0.0,22,0.00,CLR,,0.00,WeatherDisplay:10.37,2013-04-05 06:20:00,
2013-04-05 02:25:00,35.6,0.4,28.94,WNW,298,0.0,0.0,22,0.00,CLR,,0.00,WeatherDisplay:10.37,2013-04-05 06:25:00,
2013-04-05 02:30:00,35.6,0.4,28.94,WNW,298,0.0,0.0,22,0.00,CLR,,0.00,WeatherDisplay:10.37,2013-04-05 06:30:00,
2013-04-05 02:35:00,35.6,0.4,28.94,WNW,298,0.0,0.0,22,0.00,CLR,,0.00,WeatherDisplay:10.37,2013-04-05 06:35:00,
2013-04-05 02:40:00,35.6,0.4,28.94,WNW,298,0.0,0.0,22,0.00,CLR,,0.00,WeatherDisplay:10.37,2013-04-05 06:40:00,
2013-04-05 02:45:00,35.4,0.3,28.94,WNW,298,0.0,0.0,22,0.00,CLR,,0.00,WeatherDisplay:10.37,2013-04-05 06:45:00,
2013-04-05 02:50:00,35.4,0.3,28.94,WNW,298,0.0,0.0,22,0.00,CLR,,0.00,WeatherDisplay:10.37,2013-04-05 06:50:00,
2013-04-05 02:55:00,35.2,0.1,28.91,WNW,298,0.0,0.0,22,0.00,CLR,,0.00,WeatherDisplay:10.37,2013-04-05 06:55:00,
2013-04-05 03:00:00,34.9,-0.2,28.91,WNW,298,0.0,0.0,22,0.00,CLR,,0.00,WeatherDisplay:10.37,2013-04-05 07:00:00,
2013-04-05 03:05:00,35.1,0.0,28.91,WNW,298,0.0,2.0,22,0.00,CLR,,0.00,WeatherDisplay:10.37,2013-04-05 07:05:00,
2013-04-05 03:10:00,35.1,0.0,28.91,WNW,298,0.0,0.0,22,0.00,CLR,,0.00,WeatherDisplay:10.37,2013-04-05 07:10:00,
2013-04-05 03:15:00,35.5,0.3,28.91,WNW,298,0.0,3.0,22,0.00,CLR,,0.00,WeatherDisplay:10.37,2013-04-05 07:15:00,
2013-04-05 03:20:00,35.8,0.6,28.91,WNW,298,0.0,2.0,22,0.00,CLR,,0.00,WeatherDisplay:10.37,2013-04-05 07:20:00,
2013-04-05 03:25:00,36.0,0.7,28.91,WNW,298,0.0,0.0,22,0.00,CLR,,0.00,WeatherDisplay:10.37,2013-04-05 07:25:00,
2013-04-05 03:30:00,36.1,0.9,28.91,WNW,298,0.0,0.0,22,0.00,CLR,,0.00,WeatherDisplay:10.37,2013-04-05 07:30:00,
2013-04-05 03:40:00,36.2,1.0,28.91,WNW,298,0.0,3.0,22,0.00,CLR,,0.00,WeatherDisplay:10.37,2013-04-05 07:40:00,
2013-04-05 03:50:00,36.9,1.5,28.91,WNW,298,0.0,0.0,22,0.00,CLR,,0.00,WeatherDisplay:10.37,2013-04-05 07:50:00,
2013-04-05 03:55:00,37.0,1.6,28.91,WNW,298,0.0,2.0,22,0.00,CLR,,0.00,WeatherDisplay:10.37,2013-04-05 07:55:00,
2013-04-05 04:00:00,36.8,1.5,28.91,WNW,298,0.0,0.0,22,0.00,CLR,,0.00,WeatherDisplay:10.37,2013-04-05 08:00:00,
2013-04-05 04:05:00,36.3,1.0,28.91,WNW,298,0.0,0.0,22,0.00,CLR,,0.00,WeatherDisplay:10.37,2013-04-05 08:05:00,
2013-04-05 04:10:00,36.1,0.9,28.91,WNW,298,0.0,0.0,22,0.00,CLR,,0.00,WeatherDisplay:10.37,2013-04-05 08:10:00,
2013-04-05 04:15:00,36.3,1.0,28.91,WNW,298,0.0,2.0,22,0.00,CLR,,0.00,WeatherDisplay:10.37,2013-04-05 08:15:00,
2013-04-05 04:20:00,36.7,1.3,28.91,WNW,298,0.0,0.0,22,0.00,CLR,,0.00,WeatherDisplay:10.37,2013-04-05 08:20:00,
2013-04-05 04:30:00,36.9,1.5,28.91,WNW,298,0.0,2.0,22,0.00,CLR,,0.00,WeatherDisplay:10.37,2013-04-05 08:30:00,
2013-04-05 04:35:00,37.2,1.8,28.91,WNW,298,0.0,0.0,22,0.00,CLR,,0.00,WeatherDisplay:10.37,2013-04-05 08:35:00,
2013-04-05 04:40:00,37.4,0.9,28.91,WNW,298,0.0,2.0,21,0.00,CLR,,0.00,WeatherDisplay:10.37,2013-04-05 08:40:00,
2013-04-05 04:45:00,37.0,1.6,28.91,WNW,298,0.0,3.0,22,0.00,CLR,,0.00,WeatherDisplay:10.37,2013-04-05 08:45:00,
2013-04-05 04:50:00,36.7,1.3,28.91,WNW,298,0.0,4.0,22,0.00,CLR,,0.00,WeatherDisplay:10.37,2013-04-05 08:50:00,
2013-04-05 04:55:00,36.7,1.3,28.94,WNW,298,0.0,3.0,22,0.00,CLR,,0.00,WeatherDisplay:10.37,2013-04-05 08:55:00,
2013-04-05 05:05:00,36.7,1.3,28.94,WNW,298,0.0,4.0,22,0.00,CLR,,0.00,WeatherDisplay:10.37,2013-04-05 09:05:00,
2013-04-05 05:10:00,36.7,1.3,28.94,WNW,298,0.0,3.0,22,0.00,CLR,,0.00,WeatherDisplay:10.37,2013-04-05 09:10:00,
2013-04-05 05:15:00,37.0,1.6,28.94,WNW,298,0.0,0.0,22,0.00,CLR,,0.00,WeatherDisplay:10.37,2013-04-05 09:15:00,
2013-04-05 05:20:00,37.0,1.6,28.94,WNW,298,0.0,3.0,22,0.00,CLR,,0.00,WeatherDisplay:10.37,2013-04-05 09:20:00,
2013-04-05 05:30:00,36.5,1.2,28.94,WNW,298,0.0,3.0,22,0.00,CLR,,0.00,WeatherDisplay:10.37,2013-04-05 09:30:00,
2013-04-05 05:35:00,36.5,1.2,28.94,WNW,298,0.0,3.0,22,0.00,CLR,,0.00,WeatherDisplay:10.37,2013-04-05 09:35:00,
2013-04-05 05:40:00,36.3,1.0,28.94,WNW,298,0.0,3.0,22,0.00,CLR,,0.00,WeatherDisplay:10.37,2013-04-05 09:40:00,
2013-04-05 05:45:00,36.3,1.0,28.94,WNW,298,2.0,3.0,22,0.00,CLR,,0.00,WeatherDisplay:10.37,2013-04-05 09:45:00,
2013-04-05 05:50:00,36.1,0.9,28.94,WNW,298,0.0,3.0,22,0.00,CLR,,0.00,WeatherDisplay:10.37,2013-04-05 09:50:00,
2013-04-05 06:00:00,36.0,0.7,28.94,WNW,298,0.0,3.0,22,0.00,CLR,,0.00,WeatherDisplay:10.37,2013-04-05 10:00:00,
2013-04-05 06:05:00,35.8,0.6,28.94,WNW,298,0.0,2.0,22,0.00,CLR,,0.00,WeatherDisplay:10.37,2013-04-05 10:05:00,
2013-04-05 06:10:00,35.8,0.6,28.94,WNW,298,0.0,0.0,22,0.00,CLR,,0.00,WeatherDisplay:10.37,2013-04-05 10:10:00,
2013-04-05 06:15:00,35.6,0.5,28.94,WNW,297,0.0,3.0,22,0.00,CLR,,0.00,WeatherDisplay:10.37,2013-04-05 10:15:00,
2013-04-05 06:20:00,35.1,0.0,28.94,WNW,297,0.0,3.0,22,0.00,CLR,,0.00,WeatherDisplay:10.37,2013-04-05 10:20:00,
2013-04-05 06:25:00,35.1,0.0,28.94,WNW,297,0.0,3.0,22,0.00,CLR,,0.00,WeatherDisplay:10.37,2013-04-05 10:25:00,
2013-04-05 06:35:00,34.7,-0.3,28.94,WNW,297,2.0,4.0,22,0.00,CLR,,0.00,WeatherDisplay:10.37,2013-04-05 10:35:00,
2013-04-05 06:40:00,34.9,-0.2,28.94,WNW,297,3.0,4.0,22,0.00,CLR,,0.00,WeatherDisplay:10.37,2013-04-05 10:40:00,
2013-04-05 06:45:00,34.9,-0.2,28.94,WNW,297,3.0,4.0,22,0.00,CLR,,0.00,WeatherDisplay:10.37,2013-04-05 10:45:00,
2013-04-05 06:50:00,34.5,-0.5,28.94,WNW,297,2.0,3.0,22,0.00,CLR,,0.00,WeatherDisplay:10.37,2013-04-05 10:50:00,
2013-04-05 06:55:00,34.3,-0.6,28.97,WNW,297,0.0,3.0,22,0.00,CLR,,0.00,WeatherDisplay:10.37,2013-04-05 10:55:00,
2013-04-05 07:00:00,34.5,-0.5,28.97,WNW,297,2.0,3.0,22,0.00,CLR,,0.00,WeatherDisplay:10.37,2013-04-05 11:00:00,
2013-04-05 07:10:00,34.1,-0.8,28.97,WNW,297,3.0,4.0,22,0.00,CLR,,0.00,WeatherDisplay:10.37,2013-04-05 11:10:00,
2013-04-05 07:15:00,34.2,-0.8,28.97,WNW,297,3.0,4.0,22,0.00,CLR,,0.00,WeatherDisplay:10.37,2013-04-05 11:15:00,
2013-04-05 07:20:00,34.3,-0.6,28.97,WNW,297,3.0,4.0,22,0.00,CLR,,0.00,WeatherDisplay:10.37,2013-04-05 11:20:00,
2013-04-05 07:25:00,34.7,-0.3,28.97,WNW,297,2.0,3.0,22,0.00,CLR,,0.00,WeatherDisplay:10.37,2013-04-05 11:25:00,
2013-04-05 07:35:00,34.7,-0.3,28.97,WNW,297,2.0,4.0,22,0.00,CLR,,0.00,WeatherDisplay:10.37,2013-04-05 11:35:00,
2013-04-05 07:40:00,34.9,-0.2,29.00,WNW,297,2.0,3.0,22,0.00,CLR,,0.00,WeatherDisplay:10.37,2013-04-05 11:40:00,
2013-04-05 07:45:00,35.9,0.7,29.00,WNW,297,1.0,4.0,22,0.00,CLR,,0.00,WeatherDisplay:10.37,2013-04-05 11:45:00,
2013-04-05 07:50:00,36.7,1.3,29.00,WNW,297,2.0,3.0,22,0.00,CLR,,0.00,WeatherDisplay:10.37,2013-04-05 11:50:00,
2013-04-05 07:55:00,37.0,1.6,29.00,WNW,297,2.0,3.0,22,0.00,CLR,,0.00,WeatherDisplay:10.37,2013-04-05 11:55:00,
2013-04-05 08:00:00,37.0,1.6,29.00,WNW,297,2.0,3.0,22,0.00,CLR,,0.00,WeatherDisplay:10.37,2013-04-05 12:00:00,
2013-04-05 08:05:00,37.4,0.9,29.00,WNW,297,3.0,4.0,21,0.00,CLR,,0.00,WeatherDisplay:10.37,2013-04-05 12:05:00,
2013-04-05 08:10:00,37.9,1.3,29.00,NW,313,3.0,4.0,21,0.00,CLR,,0.00,WeatherDisplay:10.37,2013-04-05 12:10:00,
2013-04-05 08:15:00,38.1,1.6,29.00,NW,324,3.0,4.0,21,0.00,CLR,,0.00,WeatherDisplay:10.37,2013-04-05 12:15:00,
2013-04-05 08:20:00,38.7,2.0,29.00,NW,326,3.0,5.0,21,0.00,CLR,,0.00,WeatherDisplay:10.37,2013-04-05 12:20:00,
2013-04-05 08:25:00,39.4,2.6,29.00,NNW,333,3.0,4.0,21,0.00,CLR,,0.00,WeatherDisplay:10.37,2013-04-05 12:25:00,
2013-04-05 08:30:00,40.3,3.3,29.00,NNW,338,2.0,4.0,21,0.00,CLR,,0.00,WeatherDisplay:10.37,2013-04-05 12:30:00,
2013-04-05 08:35:00,40.8,3.8,29.00,NNW,339,2.0,4.0,21,0.00,CLR,,0.00,WeatherDisplay:10.37,2013-04-05 12:35:00,
2013-04-05 08:40:00,41.2,4.2,29.02,NNW,339,0.0,4.0,21,0.00,CLR,,0.00,WeatherDisplay:10.37,2013-04-05 12:40:00,
2013-04-05 08:45:00,41.7,4.6,29.03,NNW,340,2.0,5.0,21,0.00,CLR,,0.00,WeatherDisplay:10.37,2013-04-05 12:45:00,
2013-04-05 08:50:00,42.3,5.0,29.03,NNW,342,0.0,5.0,21,0.00,CLR,,0.00,WeatherDisplay:10.37,2013-04-05 12:50:00,
2013-04-05 08:55:00,42.7,4.4,29.03,NNW,342,1.0,5.0,20,0.00,CLR,,0.00,WeatherDisplay:10.37,2013-04-05 12:55:00,
2013-04-05 09:00:00,43.0,4.6,29.03,NNW,347,0.0,3.0,20,0.00,CLR,,0.00,WeatherDisplay:10.37,2013-04-05 13:00:00,
2013-04-05 09:05:00,43.2,4.7,29.03,North,7,0.0,3.0,20,0.00,CLR,,0.00,WeatherDisplay:10.37,2013-04-05 13:05:00,
2013-04-05 09:10:00,43.5,5.0,29.03,NNE,24,0.0,4.0,20,0.00,CLR,,0.00,WeatherDisplay:10.37,2013-04-05 13:10:00,
2013-04-05 09:20:00,43.5,5.0,29.03,NE,55,3.0,6.0,20,0.00,CLR,,0.00,WeatherDisplay:10.37,2013-04-05 13:20:00,
2013-04-05 09:30:00,44.2,5.6,29.03,NE,52,6.0,8.0,20,0.00,CLR,,0.00,WeatherDisplay:10.37,2013-04-05 13:30:00,
2013-04-05 09:35:00,44.7,6.0,29.03,NE,48,2.0,8.0,20,0.00,CLR,,0.00,WeatherDisplay:10.37,2013-04-05 13:35:00,
2013-04-05 09:40:00,44.4,5.8,29.03,NE,52,6.0,11.0,20,0.00,CLR,,0.00,WeatherDisplay:10.37,2013-04-05 13:40:00,
2013-04-05 09:45:00,44.9,6.2,29.03,NE,55,3.0,9.0,20,0.00,CLR,,0.00,WeatherDisplay:10.37,2013-04-05 13:45:00,
2013-04-05 09:50:00,45.7,6.9,29.03,ENE,58,8.0,10.0,20,0.00,CLR,,0.00,WeatherDisplay:10.37,2013-04-05 13:50:00,
2013-04-05 09:55:00,46.4,6.3,29.03,ENE,57,5.0,9.0,19,0.00,CLR,,0.00,WeatherDisplay:10.37,2013-04-05 13:55:00,
2013-04-05 10:00:00,46.4,6.3,29.03,NE,56,3.0,9.0,19,0.00,CLR,,0.00,WeatherDisplay:10.37,2013-04-05 14:00:00,
2013-04-05 10:05:00,46.2,7.3,29.03,NE,52,1.0,9.0,20,0.00,CLR,,0.00,WeatherDisplay:10.37,2013-04-05 14:05:00,
2013-04-05 10:10:00,46.6,6.5,29.03,NE,51,7.0,10.0,19,0.00,CLR,,0.00,WeatherDisplay:10.37,2013-04-05 14:10:00,
2013-04-05 10:15:00,47.3,7.1,29.03,ENE,58,3.0,6.0,19,0.00,CLR,,0.00,WeatherDisplay:10.37,2013-04-05 14:15:00,
2013-04-05 10:20:00,47.3,7.0,29.03,ENE,57,3.0,6.0,19,0.00,CLR,,0.00,WeatherDisplay:10.37,2013-04-05 14:20:00,
2013-04-05 10:25:00,48.0,7.6,29.03,NE,53,2.0,4.0,19,0.00,CLR,,0.00,WeatherDisplay:10.37,2013-04-05 14:25:00,
2013-04-05 10:30:00,47.7,7.4,29.03,NE,54,6.0,10.0,19,0.00,CLR,,0.00,WeatherDisplay:10.37,2013-04-05 14:30:00,
2013-04-05 10:40:00,48.7,8.2,29.03,ENE,57,7.0,10.0,19,0.00,CLR,,0.00,WeatherDisplay:10.37,2013-04-05 14:40:00,
2013-04-05 10:45:00,49.1,8.6,29.03,NE,55,3.0,8.0,19,0.00,CLR,,0.00,WeatherDisplay:10.37,2013-04-05 14:45:00,
2013-04-05 10:50:00,48.6,8.1,29.03,NE,55,2.0,8.0,19,0.00,CLR,,0.00,WeatherDisplay:10.37,2013-04-05 14:50:00,
2013-04-05 10:55:00,49.1,8.6,29.06,NE,54,7.0,10.0,19,0.00,CLR,,0.00,WeatherDisplay:10.37,2013-04-05 14:55:00,
2013-04-05 11:00:00,50.0,9.3,29.06,NE,56,8.0,10.0,19,0.00,CLR,,0.00,WeatherDisplay:10.37,2013-04-05 15:00:00,
2013-04-05 11:05:00,50.1,9.4,29.06,NE,56,6.0,11.0,19,0.00,CLR,,0.00,WeatherDisplay:10.37,2013-04-05 15:05:00,
2013-04-05 11:10:00,49.9,9.2,29.06,NE,55,7.0,12.0,19,0.00,CLR,,0.00,WeatherDisplay:10.37,2013-04-05 15:10:00,
2013-04-05 11:20:00,51.1,10.2,29.06,NE,42,0.0,6.0,19,0.00,CLR,,0.00,WeatherDisplay:10.37,2013-04-05 15:20:00,
2013-04-05 11:30:00,51.9,9.7,29.06,ENE,60,9.0,13.0,18,0.00,CLR,,0.00,WeatherDisplay:10.37,2013-04-05 15:30:00,
2013-04-05 11:35:00,50.9,10.1,29.06,ENE,60,6.0,10.0,19,0.00,CLR,,0.00,WeatherDisplay:10.37,2013-04-05 15:35:00,
2013-04-05 11:40:00,51.0,10.1,29.06,ENE,57,8.0,13.0,19,0.00,CLR,,0.00,WeatherDisplay:10.37,2013-04-05 15:40:00,
2013-04-05 11:45:00,51.3,10.4,29.06,ENE,58,7.0,10.0,19,0.00,CLR,,0.00,WeatherDisplay:10.37,2013-04-05 15:45:00,
2013-04-05 11:50:00,51.8,9.6,29.06,NE,52,3.0,8.0,18,0.00,CLR,,0.00,WeatherDisplay:10.37,2013-04-05 15:50:00,
2013-04-05 12:00:00,51.8,9.6,29.06,NE,56,3.0,12.0,18,0.00,CLR,,0.00,WeatherDisplay:10.37,2013-04-05 16:00:00,
2013-04-05 12:05:00,51.0,10.1,29.06,NE,51,5.0,12.0,19,0.00,CLR,,0.00,WeatherDisplay:10.37,2013-04-05 16:05:00,
2013-04-05 12:10:00,50.8,10.0,29.06,NE,53,6.0,11.0,19,0.00,CLR,,0.00,WeatherDisplay:10.37,2013-04-05 16:10:00,
2013-04-05 12:15:00,50.9,10.0,29.06,NE,52,6.0,9.0,19,0.00,CLR,,0.00,WeatherDisplay:10.37,2013-04-05 16:15:00,
2013-04-05 12:20:00,52.3,10.0,29.06,NE,36,2.0,10.0,18,0.00,CLR,,0.00,WeatherDisplay:10.37,2013-04-05 16:20:00,
2013-04-05 12:25:00,52.3,10.0,29.06,NNE,20,3.0,8.0,18,0.00,CLR,,0.00,WeatherDisplay:10.37,2013-04-05 16:25:00,
2013-04-05 12:30:00,53.1,10.7,29.06,North,5,5.0,8.0,18,0.00,CLR,,0.00,WeatherDisplay:10.37,2013-04-05 16:30:00,
2013-04-05 12:35:00,53.1,10.6,29.06,NNE,19,3.0,6.0,18,0.00,CLR,,0.00,WeatherDisplay:10.37,2013-04-05 16:35:00,
2013-04-05 12:40:00,53.9,11.3,29.06,NE,45,3.0,6.0,18,0.00,CLR,,0.00,WeatherDisplay:10.37,2013-04-05 16:40:00,
2013-04-05 12:50:00,53.3,10.8,29.06,NE,55,2.0,7.0,18,0.00,CLR,,0.00,WeatherDisplay:10.37,2013-04-05 16:50:00,
2013-04-05 12:55:00,53.6,11.0,29.06,ENE,58,5.0,7.0,18,0.00,CLR,,0.00,WeatherDisplay:10.37,2013-04-05 16:55:00,
2013-04-05 13:00:00,54.7,12.0,29.06,ENE,57,2.0,9.0,18,0.00,CLR,,0.00,WeatherDisplay:10.37,2013-04-05 17:00:00,
2013-04-05 13:05:00,54.0,11.4,29.06,NE,49,3.0,6.0,18,0.00,CLR,,0.00,WeatherDisplay:10.37,2013-04-05 17:05:00,
2013-04-05 13:10:00,54.6,11.9,29.06,NE,52,5.0,6.0,18,0.00,CLR,,0.00,WeatherDisplay:10.37,2013-04-05 17:10:00,
2013-04-05 13:15:00,54.4,11.7,29.06,NNE,18,5.0,9.0,18,0.00,CLR,,0.00,WeatherDisplay:10.37,2013-04-05 17:15:00,
2013-04-05 13:20:00,54.0,11.4,29.06,North,353,3.0,9.0,18,0.00,CLR,,0.00,WeatherDisplay:10.37,2013-04-05 17:20:00,
2013-04-05 13:30:00,54.5,11.8,29.06,NE,37,3.0,6.0,18,0.00,CLR,,0.00,WeatherDisplay:10.37,2013-04-05 17:30:00,
2013-04-05 13:35:00,53.8,11.2,29.06,North,5,3.0,8.0,18,0.00,CLR,,0.00,WeatherDisplay:10.37,2013-04-05 17:35:00,
2013-04-05 13:40:00,55.0,12.2,29.06,North,352,5.0,8.0,18,0.00,CLR,,0.00,WeatherDisplay:10.37,2013-04-05 17:40:00,
2013-04-05 13:45:00,55.8,11.6,29.06,NNW,345,6.0,8.0,17,0.00,CLR,,0.00,WeatherDisplay:10.37,2013-04-05 17:45:00,
2013-04-05 13:55:00,56.0,11.7,29.06,NNE,13,5.0,8.0,17,0.00,CLR,,0.00,WeatherDisplay:10.37,2013-04-05 17:55:00,
2013-04-05 14:00:00,56.4,12.0,29.06,North,6,5.0,6.0,17,0.00,CLR,,0.00,WeatherDisplay:10.37,2013-04-05 18:00:00,
2013-04-05 14:05:00,56.6,12.2,29.06,North,5,5.0,8.0,17,0.00,CLR,,0.00,WeatherDisplay:10.37,2013-04-05 18:05:00,
2013-04-05 14:10:00,56.7,12.3,29.06,North,4,2.0,8.0,17,0.00,CLR,,0.00,WeatherDisplay:10.37,2013-04-05 18:10:00,
2013-04-05 14:15:00,56.6,12.2,29.06,NNE,25,0.0,7.0,17,0.00,CLR,,0.00,WeatherDisplay:10.37,2013-04-05 18:15:00,
2013-04-05 14:20:00,55.4,11.2,29.06,NNE,24,3.0,11.0,17,0.00,CLR,,0.00,WeatherDisplay:10.37,2013-04-05 18:20:00,
2013-04-05 14:25:00,55.5,11.3,29.06,NNE,17,1.0,6.0,17,0.00,CLR,,0.00,WeatherDisplay:10.37,2013-04-05 18:25:00,
2013-04-05 14:35:00,54.2,11.5,29.06,NNE,26,1.0,7.0,18,0.00,CLR,,0.00,WeatherDisplay:10.37,2013-04-05 18:35:00,
2013-04-05 14:40:00,53.8,11.2,29.06,NE,36,2.0,6.0,18,0.00,CLR,,0.00,WeatherDisplay:10.37,2013-04-05 18:40:00,
2013-04-05 14:50:00,55.7,11.4,29.06,NNE,30,3.0,6.0,17,0.00,CLR,,0.00,WeatherDisplay:10.37,2013-04-05 18:50:00,
2013-04-05 14:55:00,55.8,11.5,29.06,North,359,2.0,8.0,17,0.00,CLR,,0.00,WeatherDisplay:10.37,2013-04-05 18:55:00,
2013-04-05 15:00:00,55.9,11.7,29.06,North,350,5.0,8.0,17,0.00,CLR,,0.00,WeatherDisplay:10.37,2013-04-05 19:00:00,
2013-04-05 15:10:00,56.0,11.8,29.06,NNE,26,1.0,6.0,17,0.00,CLR,,0.00,WeatherDisplay:10.37,2013-04-05 19:10:00,
2013-04-05 15:15:00,55.6,11.4,29.06,NNE,24,6.0,12.0,17,0.00,CLR,,0.00,WeatherDisplay:10.37,2013-04-05 19:15:00,
2013-04-05 15:20:00,56.2,11.9,29.06,North,355,2.0,11.0,17,0.00,CLR,,0.00,WeatherDisplay:10.37,2013-04-05 19:20:00,
2013-04-05 15:30:00,56.8,12.4,29.06,North,7,2.0,6.0,17,0.00,CLR,,0.00,WeatherDisplay:10.37,2013-04-05 19:30:00,
2013-04-05 15:35:00,56.9,12.5,29.06,North,10,1.0,6.0,17,0.00,CLR,,0.00,WeatherDisplay:10.37,2013-04-05 19:35:00,
2013-04-05 15:45:00,56.4,12.1,29.06,NE,55,2.0,8.0,17,0.00,CLR,,0.00,WeatherDisplay:10.37,2013-04-05 19:45:00,
2013-04-05 15:55:00,56.5,12.2,29.06,NE,48,5.0,12.0,17,0.00,CLR,,0.00,WeatherDisplay:10.37,2013-04-05 19:55:00,
2013-04-05 16:00:00,56.9,12.5,29.06,North,11,1.0,13.0,17,0.00,CLR,,0.00,WeatherDisplay:10.37,2013-04-05 20:00:00,
2013-04-05 16:05:00,57.2,12.7,29.06,North,3,1.0,8.0,17,0.00,CLR,,0.00,WeatherDisplay:10.37,2013-04-05 20:05:00,
2013-04-05 16:10:00,56.8,12.4,29.03,NNE,16,1.0,6.0,17,0.00,CLR,,0.00,WeatherDisplay:10.37,2013-04-05 20:10:00,
2013-04-05 16:15:00,57.0,12.6,29.03,NE,51,1.0,6.0,17,0.00,CLR,,0.00,WeatherDisplay:10.37,2013-04-05 20:15:00,
2013-04-05 16:20:00,56.7,12.3,29.03,NNE,18,6.0,8.0,17,0.00,CLR,,0.00,WeatherDisplay:10.37,2013-04-05 20:20:00,
2013-04-05 16:25:00,57.2,12.7,29.03,North,359,3.0,8.0,17,0.00,CLR,,0.00,WeatherDisplay:10.37,2013-04-05 20:25:00,
2013-04-05 16:30:00,57.6,13.0,29.03,NNE,16,1.0,5.0,17,0.00,CLR,,0.00,WeatherDisplay:10.37,2013-04-05 20:30:00,
2013-04-05 16:35:00,56.7,12.3,29.03,NNW,348,5.0,8.0,17,0.00,CLR,,0.00,WeatherDisplay:10.37,2013-04-05 20:35:00,
2013-04-05 16:40:00,56.0,11.7,29.03,NW,326,7.0,8.0,17,0.00,CLR,,0.00,WeatherDisplay:10.37,2013-04-05 20:40:00,
2013-04-05 16:45:00,56.6,12.2,29.03,NNW,328,5.0,8.0,17,0.00,CLR,,0.00,WeatherDisplay:10.37,2013-04-05 20:45:00,
2013-04-05 16:55:00,56.5,12.2,29.03,NNE,14,2.0,6.0,17,0.00,CLR,,0.00,WeatherDisplay:10.37,2013-04-05 20:55:00,
2013-04-05 17:05:00,57.5,12.9,29.03,North,355,2.0,6.0,17,0.00,CLR,,0.00,WeatherDisplay:10.37,2013-04-05 21:05:00,
2013-04-05 17:15:00,56.7,12.3,29.03,NE,42,3.0,6.0,17,0.00,CLR,,0.00,WeatherDisplay:10.37,2013-04-05 21:15:00,
2013-04-05 17:20:00,57.2,12.7,29.03,NNE,17,3.0,6.0,17,0.00,CLR,,0.00,WeatherDisplay:10.37,2013-04-05 21:20:00,
2013-04-05 17:25:00,56.6,12.2,29.03,NNW,337,5.0,8.0,17,0.00,CLR,,0.00,WeatherDisplay:10.37,2013-04-05 21:25:00,
2013-04-05 17:30:00,57.1,12.6,29.03,NNW,338,3.0,8.0,17,0.00,CLR,,0.00,WeatherDisplay:10.37,2013-04-05 21:30:00,
2013-04-05 17:35:00,57.0,12.6,29.03,North,2,2.0,6.0,17,0.00,CLR,,0.00,WeatherDisplay:10.37,2013-04-05 21:35:00,
2013-04-05 17:40:00,56.7,12.3,29.06,NNE,22,2.0,6.0,17,0.00,CLR,,0.00,WeatherDisplay:10.37,2013-04-05 21:40:00,
2013-04-05 17:50:00,56.3,12.0,29.06,NE,41,1.0,6.0,17,0.00,CLR,,0.00,WeatherDisplay:10.37,2013-04-05 21:50:00,
2013-04-05 17:55:00,56.2,11.9,29.03,NNE,29,0.0,4.0,17,0.00,CLR,,0.00,WeatherDisplay:10.37,2013-04-05 21:55:00,
2013-04-05 18:00:00,56.7,12.3,29.03,NNE,18,2.0,4.0,17,0.00,CLR,,0.00,WeatherDisplay:10.37,2013-04-05 22:00:00,
2013-04-05 18:05:00,56.8,12.4,29.03,NNE,23,0.0,4.0,17,0.00,CLR,,0.00,WeatherDisplay:10.37,2013-04-05 22:05:00,
2013-04-05 18:10:00,56.7,12.3,29.06,NNE,19,5.0,6.0,17,0.00,CLR,,0.00,WeatherDisplay:10.37,2013-04-05 22:10:00,
2013-04-05 18:20:00,55.8,11.5,29.06,NNE,12,2.0,6.0,17,0.00,CLR,,0.00,WeatherDisplay:10.37,2013-04-05 22:20:00,
2013-04-05 18:25:00,55.9,11.7,29.06,North,353,2.0,4.0,17,0.00,CLR,,0.00,WeatherDisplay:10.37,2013-04-05 22:25:00,
2013-04-05 18:30:00,55.9,11.7,29.06,NNW,346,0.0,0.0,17,0.00,CLR,,0.00,WeatherDisplay:10.37,2013-04-05 22:30:00,
2013-04-05 18:35:00,56.1,11.8,29.06,NNW,341,2.0,6.0,17,0.00,CLR,,0.00,WeatherDisplay:10.37,2013-04-05 22:35:00,
2013-04-05 18:40:00,55.9,11.7,29.06,NNW,342,2.0,4.0,17,0.00,CLR,,0.00,WeatherDisplay:10.37,2013-04-05 22:40:00,
2013-04-05 18:45:00,55.3,11.2,29.06,NNW,342,3.0,5.0,17,0.00,CLR,,0.00,WeatherDisplay:10.37,2013-04-05 22:45:00,
2013-04-05 18:50:00,55.0,12.2,29.06,NNW,337,2.0,6.0,18,0.00,CLR,,0.00,WeatherDisplay:10.37,2013-04-05 22:50:00,
2013-04-05 19:00:00,54.7,11.9,29.06,North,349,2.0,4.0,18,0.00,CLR,,0.00,WeatherDisplay:10.37,2013-04-05 23:00:00,
2013-04-05 19:05:00,54.1,11.4,29.06,North,349,3.0,6.0,18,0.00,CLR,,0.00,WeatherDisplay:10.37,2013-04-05 23:05:00,
2013-04-05 19:10:00,53.4,10.9,29.06,NNW,343,1.0,4.0,18,0.00,CLR,,0.00,WeatherDisplay:10.37,2013-04-05 23:10:00,
2013-04-05 19:15:00,53.4,10.9,29.06,NNW,334,0.0,0.0,18,0.00,CLR,,0.00,WeatherDisplay:10.37,2013-04-05 23:15:00,
2013-04-05 19:20:00,53.2,10.7,29.06,NNW,333,0.0,3.0,18,0.00,CLR,,0.00,WeatherDisplay:10.37,2013-04-05 23:20:00,
2013-04-05 19:25:00,52.5,10.2,29.06,NNW,336,0.0,4.0,18,0.00,CLR,,0.00,WeatherDisplay:10.37,2013-04-05 23:25:00,
2013-04-05 19:30:00,52.2,9.9,29.06,NNW,340,0.0,3.0,18,0.00,CLR,,0.00,WeatherDisplay:10.37,2013-04-05 23:30:00,
2013-04-05 19:40:00,51.5,10.6,29.06,NNW,340,0.0,0.0,19,0.00,CLR,,0.00,WeatherDisplay:10.37,2013-04-05 23:40:00,
2013-04-05 19:45:00,51.4,10.5,29.06,NNW,340,0.0,0.0,19,0.00,CLR,,0.00,WeatherDisplay:10.37,2013-04-05 23:45:00,
2013-04-05 19:50:00,52.1,9.8,29.06,NNW,340,0.0,0.0,18,0.00,CLR,,0.00,WeatherDisplay:10.37,2013-04-05 23:50:00,
2013-04-05 19:55:00,52.2,9.9,29.06,NNW,340,0.0,0.0,18,0.00,CLR,,0.00,WeatherDisplay:10.37,2013-04-05 23:55:00,
2013-04-05 20:00:00,51.4,10.5,29.06,NNW,340,0.0,0.0,19,0.00,CLR,,0.00,WeatherDisplay:10.37,2013-04-06 00:00:00,
2013-04-05 20:05:00,50.4,9.6,29.06,NNW,340,0.0,0.0,19,0.00,CLR,,0.00,WeatherDisplay:10.37,2013-04-06 00:05:00,
2013-04-05 20:10:00,49.5,8.9,29.06,NNW,340,0.0,0.0,19,0.00,CLR,,0.00,WeatherDisplay:10.37,2013-04-06 00:10:00,
2013-04-05 20:15:00,48.7,8.2,29.06,NNW,340,0.0,0.0,19,0.00,CLR,,0.00,WeatherDisplay:10.37,2013-04-06 00:15:00,
2013-04-05 20:25:00,47.3,7.0,29.06,NNW,340,0.0,0.0,19,0.00,CLR,,0.00,WeatherDisplay:10.37,2013-04-06 00:25:00,
2013-04-05 20:30:00,46.8,6.6,29.06,NNW,340,0.0,0.0,19,0.00,CLR,,0.00,WeatherDisplay:10.37,2013-04-06 00:30:00,
2013-04-05 20:35:00,46.2,7.3,29.06,NNW,340,0.0,0.0,20,0.00,CLR,,0.00,WeatherDisplay:10.37,2013-04-06 00:35:00,
2013-04-05 20:40:00,45.7,6.9,29.09,NNW,340,0.0,0.0,20,0.00,CLR,,0.00,WeatherDisplay:10.37,2013-04-06 00:40:00,
2013-04-05 20:50:00,44.6,6.0,29.09,NNW,340,0.0,0.0,20,0.00,CLR,,0.00,WeatherDisplay:10.37,2013-04-06 00:50:00,
2013-04-05 21:00:00,43.8,5.3,29.09,NNW,340,0.0,0.0,20,0.00,CLR,,0.00,WeatherDisplay:10.37,2013-04-06 01:00:00,
2013-04-05 21:05:00,43.5,5.0,29.09,NNW,340,0.0,0.0,20,0.00,CLR,,0.00,WeatherDisplay:10.37,2013-04-06 01:05:00,
2013-04-05 21:10:00,43.2,4.7,29.06,NNW,340,0.0,0.0,20,0.00,CLR,,0.00,WeatherDisplay:10.37,2013-04-06 01:10:00,
2013-04-05 21:15:00,42.8,4.4,29.06,NNW,340,0.0,0.0,20,0.00,CLR,,0.00,WeatherDisplay:10.37,2013-04-06 01:15:00,
2013-04-05 21:20:00,42.4,5.2,29.06,NNW,340,0.0,0.0,21,0.00,CLR,,0.00,WeatherDisplay:10.37,2013-04-06 01:20:00,
2013-04-05 21:30:00,41.5,4.4,29.09,NNW,340,0.0,0.0,21,0.00,CLR,,0.00,WeatherDisplay:10.37,2013-04-06 01:30:00,
2013-04-05 21:35:00,41.2,4.1,29.09,NNW,340,0.0,0.0,21,0.00,CLR,,0.00,WeatherDisplay:10.37,2013-04-06 01:35:00,
2013-04-05 21:45:00,40.6,3.7,29.09,NNW,340,0.0,0.0,21,0.00,CLR,,0.00,WeatherDisplay:10.37,2013-04-06 01:45:00,
2013-04-05 21:50:00,40.6,3.7,29.09,NNW,340,0.0,0.0,21,0.00,CLR,,0.00,WeatherDisplay:10.37,2013-04-06 01:50:00,
2013-04-05 21:55:00,40.5,3.5,29.09,NNW,340,0.0,0.0,21,0.00,CLR,,0.00,WeatherDisplay:10.37,2013-04-06 01:55:00,
2013-04-05 22:00:00,40.5,3.5,29.09,NNW,340,0.0,0.0,21,0.00,CLR,,0.00,WeatherDisplay:10.37,2013-04-06 02:00:00,
2013-04-05 22:05:00,40.3,3.4,29.09,NNW,340,0.0,0.0,21,0.00,CLR,,0.00,WeatherDisplay:10.37,2013-04-06 02:05:00,
2013-04-05 22:10:00,38.8,2.1,29.09,NW,321,3.0,5.0,21,0.00,CLR,,0.00,WeatherDisplay:10.37,2013-04-06 02:10:00,
2013-04-05 22:20:00,38.8,2.2,29.09,NNW,341,0.0,4.0,21,0.00,CLR,,0.00,WeatherDisplay:10.37,2013-04-06 02:20:00,
2013-04-05 22:25:00,39.4,2.6,29.12,NNW,346,0.0,0.0,21,0.00,CLR,,0.00,WeatherDisplay:10.37,2013-04-06 02:25:00,
2013-04-05 22:30:00,39.7,2.9,29.12,NNW,343,0.0,0.0,21,0.00,CLR,,0.00,WeatherDisplay:10.37,2013-04-06 02:30:00,
2013-04-05 22:35:00,39.6,2.8,29.12,NNW,343,0.0,0.0,21,0.00,CLR,,0.00,WeatherDisplay:10.37,2013-04-06 02:35:00,
2013-04-05 22:45:00,39.4,2.6,29.12,NNW,343,0.0,0.0,21,0.00,CLR,,0.00,WeatherDisplay:10.37,2013-04-06 02:45:00,
2013-04-05 22:50:00,39.5,2.7,29.12,NNW,343,0.0,0.0,21,0.00,CLR,,0.00,WeatherDisplay:10.37,2013-04-06 02:50:00,
2013-04-05 22:55:00,39.4,2.6,29.12,NNW,343,0.0,0.0,21,0.00,CLR,,0.00,WeatherDisplay:10.37,2013-04-06 02:55:00,
2013-04-05 23:05:00,38.8,2.2,29.12,NNW,343,0.0,0.0,21,0.00,CLR,,0.00,WeatherDisplay:10.37,2013-04-06 03:05:00,
2013-04-05 23:15:00,38.4,1.8,29.09,NNW,343,0.0,0.0,21,0.00,CLR,,0.00,WeatherDisplay:10.37,2013-04-06 03:15:00,
2013-04-05 23:20:00,37.9,1.4,29.09,NNW,343,0.0,0.0,21,0.00,CLR,,0.00,WeatherDisplay:10.37,2013-04-06 03:20:00,
2013-04-05 23:25:00,37.8,1.2,29.09,NNW,343,0.0,0.0,21,0.00,CLR,,0.00,WeatherDisplay:10.37,2013-04-06 03:25:00,
2013-04-05 23:35:00,38.1,1.6,29.09,NNW,343,0.0,0.0,21,0.00,CLR,,0.00,WeatherDisplay:10.37,2013-04-06 03:35:00,
2013-04-05 23:40:00,38.1,1.6,29.09,NNW,343,0.0,0.0,21,0.00,CLR,,0.00,WeatherDisplay:10.37,2013-04-06 03:40:00,
2013-04-05 23:45:00,38.1,1.6,29.09,NNW,343,0.0,0.0,21,0.00,CLR,,0.00,WeatherDisplay:10.37,2013-04-06 03:45:00,
2013-04-05 23:50:00,37.8,1.2,29.09,NNW,343,0.0,0.0,21,0.00,CLR,,0.00,WeatherDisplay:10.37,2013-04-06 03:50:00,
2013-04-05 23:55:00,37.6,1.1,29.09,NNW,343,0.0,0.0,21,0.00,CLR,,0.00,WeatherDisplay:10.37,2013-04-06 03:55:00,